[[{"header":{"parameterUnit":"m.s-1","parameterCategory":1,"la1":30.2991,"la2":30.254,"lo1":-89.0895,"lo2":-89.0444,"dy":0.0017,"dx":0.0017,"nx":28,"ny":28,"refTime":"2023-08-01T03:00:00:Z","depth":0,"parameterNumber":2,"parameterNumberName":"U-component_of_WINDS"},"data":[0,0,0,0,0,0,0,0,0,0,0,0,0,0,0,0,0,0,0,0,0,0,0,0,0,0,0,0,0,0,0,0,0,0,0,0,0,0,0,0,0,0,0,0,0,0,0,0,0,0,0,0,0,0,0,0,0,0,0.6684,0.6685,0,0.6795,0.6797,0.6798,0.683,0.683,0.6829,0.6828,0.6942,0.6946,0.6949,0,0,0,0,0,0,0,0,0,0,0,0,0,0.65,0.6503,0.6684,0.6686,0.6687,0.6795,0.6797,0.6798,0.683,0.683,0.6829,0.6828,0.6941,0.6945,0.695,0,0,0,0,0,0,0,0,0,0,0,0,0,0.6592,0.6504,0.6684,0.6716,0.672,0.6795,0.6797,0.6799,0.683,0.683,0.6829,0.6828,0.694,0.6945,0.695,0.7001,0,0,0.6967,0.6969,0,0,0,0,0,0,0,0,0.6587,0.6599,0.671,0.6714,0.6719,0.6798,0.6773,0.6866,0.6831,0.6789,0.6828,0.6827,0.6895,0.6904,0.6927,0.7006,0.7011,0.6967,0.697,0.6973,0.6974,0,0,0,0,0,0,0,0.658,0.6594,0.6728,0.6711,0.6717,0.6725,0.6737,0.6791,0.6845,0.6792,0.6795,0.6807,0.6897,0.6921,0.693,0.7013,0.6967,0.6972,0.6975,0.6977,0.714,0.7141,0,0,0,0,0,0,0.6569,0.6589,0.6725,0.6732,0.6649,0.6729,0.6742,0.6773,0.6845,0.6855,0.6808,0.6809,0.6913,0.6923,0.6934,0.6998,0.6973,0.6978,0.6981,0.7139,0.714,0.7142,0,0,0,0,0,0,0.6565,0.658,0.672,0.6661,0.6679,0.6733,0.6767,0.6776,0.68,0.6857,0.6867,0.6823,0.6912,0.6926,0.6984,0.7003,0.698,0.6985,0.7138,0.7139,0.7141,0.7127,0,0,0,0,0,0,0.6559,0.6579,0.6599,0.6661,0.6682,0.6769,0.6769,0.6779,0.681,0.6811,0.6874,0.6883,0.6913,0.6976,0.6989,0.701,0.6989,0.7136,0.7138,0.714,0.7126,0.7128,0.713,0,0,0,0,0,0.6552,0.659,0.6599,0.6616,0.6708,0.677,0.6782,0.6815,0.6811,0.6831,0.6868,0.6881,0.6998,0.6982,0.6997,0.7019,0.7135,0.7138,0.714,0.7125,0.7128,0.713,0,0,0,0,0,0,0.6528,0.6599,0.661,0.6669,0.6713,0.6775,0.6802,0.6817,0.6863,0.6862,0.6902,0.6916,0.6971,0.7001,0.6981,0.7072,0.7067,0.7073,0.7051,0.7053,0.7055,0.7047,0.6994,0,0,0,0,0,0.653,0.6574,0.6633,0.668,0.6701,0.6747,0.6775,0.6798,0.6845,0.6863,0.6904,0.6949,0.6996,0.7026,0.7073,0.7131,0.7145,0.7153,0.7155,0.7156,0.7161,0.7194,0.7198,0.715,0.715,0.715,0,0,0.6534,0.6578,0.6603,0.6676,0.6713,0.6757,0.6763,0.681,0.6843,0.6871,0.6928,0.6959,0.7012,0.707,0.7098,0.7097,0.7177,0.716,0.716,0.7164,0.7197,0.7201,0.7205,0.7151,0.7151,0.7151,0,0,0.6563,0.6601,0.6644,0.668,0.6736,0.6767,0.6777,0.6837,0.6858,0.6916,0.6938,0.6978,0.7058,0.7095,0.7125,0.7168,0.7182,0.7182,0.7192,0.7223,0.7227,0.7231,0.7246,0.7252,0.7187,0.7187,0.7187,0,0.656,0.6629,0.6664,0.671,0.6741,0.6768,0.6812,0.6846,0.6914,0.6935,0.6933,0.7034,0.7072,0.7139,0.7149,0.7172,0.7185,0.7176,0.7224,0.7228,0.7232,0.7247,0.7253,0.7186,0.7186,0.7186,0.7186,0,0.6623,0.667,0.6698,0.6763,0.6797,0.6842,0.6884,0.6915,0.6934,0.6965,0.7023,0.707,0.7126,0.7143,0.7163,0.7213,0.7211,0.7216,0.7212,0.7235,0.725,0.7257,0.7186,0.7186,0.7186,0.7186,0,0,0.664,0.6724,0.6734,0.6764,0.6827,0.6864,0.691,0.6965,0.699,0.7036,0.7076,0.7143,0.7148,0.7181,0.7205,0.7233,0.7264,0.7234,0.7236,0.7238,0.7323,0.7319,0.7325,0.7274,0.7275,0.7276,0.7319,0,0.6677,0.676,0.6794,0.6861,0.6905,0.6931,0.6971,0.7014,0.7044,0.7086,0.7119,0.7166,0.7169,0.7189,0.7218,0.7254,0.7282,0.7252,0.7311,0.7313,0.7297,0.7333,0.7329,0.7367,0.7325,0.7326,0.7327,0,0.6732,0.6778,0.685,0.6908,0.6928,0.6963,0.7017,0.7056,0.7106,0.7126,0.7163,0.7185,0.7234,0.7226,0.7295,0.7273,0.73,0.7321,0.7324,0.733,0.7321,0.7341,0.738,0.7385,0.7336,0.7336,0.7335,0,0.6737,0.6817,0.6871,0.6896,0.6965,0.6989,0.7019,0.7068,0.7099,0.7146,0.7166,0.7218,0.7246,0.7286,0.7321,0.7312,0.7386,0.7382,0.7404,0.7403,0.7418,0.7417,0.7462,0.7435,0.7435,0.7435,0.7435,0,0.6775,0.6818,0.6874,0.6907,0.6956,0.6994,0.7041,0.7073,0.7116,0.7155,0.7181,0.7218,0.7262,0.7305,0.7333,0.7385,0.7398,0.7415,0.7422,0.7413,0.741,0.743,0.7429,0.7437,0.7436,0.7436,0.7436,0,0.6789,0.6828,0.6888,0.6949,0.6965,0.6999,0.7051,0.7084,0.7115,0.7165,0.7179,0.7228,0.7279,0.7318,0.7385,0.7403,0.7459,0.7466,0.7442,0.7445,0.7466,0.7463,0.7525,0.7535,0.7501,0.7502,0.7502,0,0.681,0.6844,0.6909,0.6937,0.6967,0.7012,0.7044,0.7083,0.7115,0.7174,0.72,0.7253,0.7297,0.7378,0.7419,0.747,0.7479,0.7497,0.7487,0.7477,0.7479,0.7477,0.748,0.7498,0.7499,0.7499,0.7499,0,0.6844,0.6862,0.6908,0.696,0.6997,0.704,0.7084,0.7105,0.7152,0.7187,0.7239,0.7274,0.7342,0.7394,0.7449,0.748,0.7497,0.7502,0.751,0.7501,0.7485,0.7494,0.7445,0.75,0.75,0.75,0.75,0.75,0.6863,0.6894,0.6944,0.6994,0.7031,0.7071,0.7105,0.7141,0.7185,0.7244,0.7264,0.7318,0.7367,0.7443,0.7474,0.7517,0.7518,0.7529,0.7532,0.7534,0.7534,0.7478,0.7528,0.7528,0.7528,0.7528,0.7528,0,0.6898,0.6932,0.6977,0.7037,0.7076,0.709,0.7138,0.717,0.7217,0.7262,0.7305,0.7366,0.7416,0.7462,0.7515,0.7541,0.755,0.7553,0.7552,0.7559,0.753,0.7518,0.7545,0.7545,0.7545,0.7545,0.7545,0.7545,0.6921,0.6974,0.6998,0.7071,0.7104,0.7158,0.7185,0.7222,0.7257,0.7324,0.7366,0.7396,0.7441,0.7498,0.7545,0.7557,0.7575,0.7577,0.7591,0.7563,0.7561,0.7559,0.7547,0.758,0.758,0.7616,0.7616,0.7617]},{"header":{"parameterUnit":"m.s-1","parameterCategory":1,"la1":30.2991,"la2":30.254,"lo1":-89.0895,"lo2":-89.0444,"dy":0.0017,"dx":0.0017,"nx":28,"ny":28,"refTime":"2023-08-01T03:00:00:Z","depth":0,"parameterNumber":3,"parameterNumberName":"V-component_of_WINDS"},"data":[0,0,0,0,0,0,0,0,0,0,0,0,0,0,0,0,0,0,0,0,0,0,0,0,0,0,0,0,0,0,0,0,0,0,0,0,0,0,0,0,0,0,0,0,0,0,0,0,0,0,0,0,0,0,0,0,0,0,3.6886,3.6885,0,3.6819,3.6818,3.6818,3.675,3.6749,3.6748,3.6747,3.6675,3.6674,3.6673,0,0,0,0,0,0,0,0,0,0,0,0,0,3.6951,3.695,3.6886,3.6885,3.6884,3.6819,3.6818,3.6818,3.675,3.6749,3.6748,3.6747,3.6675,3.6674,3.6673,0,0,0,0,0,0,0,0,0,0,0,0,0,3.6907,3.695,3.6886,3.6843,3.6838,3.682,3.6818,3.6817,3.675,3.6749,3.6748,3.6746,3.6676,3.6674,3.6673,3.669,0,0,3.6668,3.6667,0,0,0,0,0,0,0,0,3.691,3.6905,3.685,3.6846,3.6841,3.6792,3.6815,3.6774,3.6751,3.6784,3.6747,3.6746,3.6715,3.671,3.67,3.6687,3.6684,3.6668,3.6667,3.6666,3.6665,0,0,0,0,0,0,0,3.6913,3.6907,3.6859,3.6849,3.6844,3.6826,3.6818,3.6807,3.6757,3.6781,3.6776,3.6769,3.6712,3.6702,3.6698,3.6682,3.6668,3.6666,3.6665,3.6665,3.6679,3.6681,0,0,0,0,0,0,3.6923,3.691,3.6861,3.6857,3.6873,3.6826,3.6817,3.6809,3.6757,3.6748,3.677,3.6766,3.6705,3.67,3.6695,3.6712,3.6666,3.6664,3.6664,3.6678,3.668,3.6681,0,0,0,0,0,0,3.6925,3.6919,3.6864,3.6882,3.6874,3.6826,3.6817,3.6808,3.6798,3.6749,3.674,3.6769,3.6704,3.6697,3.6692,3.6709,3.6664,3.6662,3.6676,3.6678,3.668,3.6746,0,0,0,0,0,0,3.6927,3.692,3.6927,3.6883,3.6873,3.6864,3.6818,3.6808,3.6796,3.679,3.6746,3.6738,3.6702,3.6695,3.669,3.6705,3.6661,3.6675,3.6677,3.668,3.6742,3.675,3.6757,0,0,0,0,0,3.6929,3.6948,3.6928,3.6922,3.6881,3.6865,3.6859,3.6819,3.6798,3.6804,3.6772,3.6739,3.6708,3.6695,3.6689,3.6704,3.6673,3.6677,3.6679,3.6739,3.6749,3.6757,0,0,0,0,0,0,3.6994,3.6941,3.6919,3.6923,3.6899,3.6853,3.686,3.6831,3.6811,3.6806,3.6756,3.6747,3.6747,3.6725,3.6712,3.6718,3.6686,3.6688,3.6733,3.6742,3.6749,3.6754,3.666,0,0,0,0,0,3.7009,3.7001,3.6955,3.6963,3.6952,3.6908,3.69,3.6871,3.6843,3.6832,3.6801,3.6774,3.6758,3.6748,3.6731,3.6739,3.6728,3.6746,3.6753,3.676,3.6762,3.6764,3.6771,3.6691,3.6691,3.6691,0,0,3.7039,3.7009,3.7007,3.6975,3.6953,3.6945,3.69,3.6893,3.6886,3.6831,3.6824,3.68,3.6767,3.6768,3.6767,3.675,3.6782,3.6764,3.6769,3.6768,3.6768,3.6776,3.6782,3.6693,3.6693,3.6692,0,0,3.709,3.7067,3.7072,3.7051,3.7018,3.6989,3.699,3.6949,3.6931,3.6924,3.6882,3.6873,3.6846,3.6824,3.681,3.6853,3.6821,3.6849,3.6887,3.6889,3.6896,3.6901,3.6916,3.6922,3.6851,3.6851,3.6851,0,3.7131,3.7119,3.7077,3.7074,3.7061,3.7011,3.7015,3.6996,3.696,3.6951,3.6932,3.6898,3.6872,3.6868,3.6879,3.6869,3.6868,3.6853,3.6898,3.6903,3.6908,3.6921,3.6927,3.6855,3.6854,3.6854,3.6854,0,3.7171,3.7163,3.717,3.7138,3.7125,3.7125,3.7083,3.7075,3.7048,3.7021,3.7014,3.6981,3.6956,3.6953,3.6926,3.6944,3.6934,3.6908,3.6874,3.692,3.6932,3.6937,3.686,3.6858,3.6857,3.6857,0,0,3.7261,3.7206,3.7209,3.7194,3.7154,3.7146,3.7144,3.7121,3.7115,3.7091,3.7087,3.7066,3.7041,3.7025,3.6995,3.6997,3.7033,3.697,3.6968,3.6982,3.7051,3.7072,3.7079,3.7012,3.7013,3.7014,3.7054,0,3.7305,3.7299,3.7262,3.7266,3.7257,3.7211,3.7208,3.7183,3.7157,3.7145,3.7116,3.7102,3.707,3.706,3.706,3.7029,3.7046,3.7025,3.7007,3.7007,3.7017,3.7085,3.7106,3.7146,3.7059,3.7059,3.706,0,3.7356,3.7337,3.7341,3.7302,3.7297,3.7295,3.7271,3.7261,3.7231,3.7212,3.7194,3.7161,3.7154,3.7123,3.7112,3.7099,3.7089,3.7072,3.7073,3.7069,3.7036,3.7083,3.7158,3.7164,3.7067,3.7066,3.7066,0,3.7421,3.7396,3.7395,3.7383,3.7337,3.7338,3.7318,3.7287,3.7276,3.7255,3.7247,3.7224,3.7212,3.7195,3.7155,3.7137,3.7149,3.7115,3.7132,3.7133,3.7137,3.7137,3.7211,3.7131,3.7131,3.7131,3.7131,0,3.7474,3.7478,3.7424,3.7423,3.7426,3.7383,3.7386,3.7362,3.7335,3.7328,3.7286,3.728,3.7229,3.7217,3.7186,3.7181,3.7176,3.716,3.7151,3.7163,3.7166,3.7156,3.7152,3.7132,3.7132,3.7132,3.7131,0,3.7547,3.7511,3.7507,3.7464,3.7454,3.7458,3.7421,3.7418,3.739,3.7381,3.7377,3.7332,3.7315,3.7275,3.7247,3.7226,3.723,3.7215,3.7241,3.7236,3.7255,3.7254,3.7325,3.7332,3.7249,3.7249,3.725,0,3.7584,3.7586,3.7544,3.7537,3.752,3.7509,3.7498,3.7455,3.7445,3.7411,3.7412,3.7393,3.7375,3.735,3.7314,3.7293,3.7277,3.7303,3.7273,3.7285,3.7277,3.7277,3.7277,3.731,3.7311,3.7312,3.7313,0,3.7652,3.7634,3.762,3.76,3.7588,3.7569,3.7548,3.7545,3.7496,3.7487,3.747,3.7456,3.7429,3.741,3.7383,3.7361,3.7329,3.7323,3.7325,3.7338,3.7353,3.7345,3.7259,3.7321,3.732,3.732,3.7319,3.7319,3.7708,3.7708,3.7679,3.7664,3.7644,3.7626,3.7621,3.7593,3.7579,3.7554,3.7529,3.7515,3.7484,3.7445,3.7426,3.7414,3.7397,3.7401,3.7402,3.7404,3.7409,3.7355,3.7408,3.7408,3.7408,3.7408,3.7407,0,3.7774,3.7753,3.7741,3.7713,3.7702,3.7674,3.7649,3.7641,3.763,3.7605,3.7589,3.7569,3.755,3.7513,3.7491,3.7488,3.7473,3.7484,3.7483,3.7479,3.7425,3.7425,3.7497,3.7497,3.7497,3.7497,3.7497,3.7497,3.7807,3.7806,3.7784,3.7772,3.775,3.7738,3.7726,3.7708,3.7688,3.7669,3.7654,3.7631,3.76,3.7575,3.7557,3.7546,3.754,3.7555,3.754,3.7491,3.7482,3.7474,3.7474,3.7555,3.7555,3.7594,3.7595,3.7595]}]]